www.pogodaiklimat.ru

ПОГОДА в Ильичёвске

  • Прогноз погоды в Ильичёвске
  • Монитор погоды в Ильичёвске
  • Климат города

АРХИВ ПОГОДЫ в Ильичёвске

Время (UTC), дата Ветер
(напр.,м/с)
 
Видим.   Явления Облачность Т
(С)
Тd
(С)
f
(%)
Тe
(С)
Тes
(С)
Комфортность P
(гПа)
Po
(гПа)
Тmin
(С)
Tmax
(С)
R
(мм)
S
(см)
18 13.08 Ю 3 10 км ясно +26.4 +24.1 87 +37 +37 очень
душно
1013.7 1014.0 +29.1
21 13.08 Ю 1 10 км ясно +25.9 +23.1 85 +35 +35 очень
душно
1013.8 1014.0
00 14.08 Ю 1 10 км ясно +24.9 +23.1 90 +33 +33 очень
душно
1014.2 1014.0
03 14.08 Ю 1 13 км ясно +25.2 +23.4 90 +34 +34 очень
душно
1013.8 1014.0
06 14.08 ЮВ 1 13 км 3/1 600 м
[Cu hum Cs]
+27.3 +24.8 86 +39 +45 очень
душно
1014.2 1014.0 +24.5
09 14.08 ЮВ 2 24 км ясно +29.9 +23.5 69 +41 +56 опасность
перегрева
1014.3 1014.0
12 14.08 ЮВ 2 25 км ясно +29.6 +23.4 69 +40 +52 опасность
солнечного
удара
1013.3 1013.0
15 14.08 Ю 3 25 км ясно +28.4 +22.8 72 +38 +40 очень
душно
1011.9 1012.0
18 14.08 Ю 1 10 км ясно +26.0 +22.5 81 +34 +34 очень
душно
1011.3 1011.0 +30.5
21 14.08 штиль 0 10 км ясно +24.6 +22.2 87 +32 +32 очень
душно
1010.5 1011.0
00 15.08 штиль 0 10 км ясно +23.7 +21.9 90 +31 +31 очень
душно
1010.0 1010.0
03 15.08 штиль 0 6000 м дымка ясно +23.2 +21.7 91 +31 +31 очень
душно
1009.3 1009.0
06 15.08 СЗ 1 8000 м дымка ясно +27.6 +22.8 75 +37 +43 очень
душно
1009.3 1009.0 +22.5
09 15.08 Ю 3 17 км ясно +29.1 +23.3 71 +39 +52 опасность
солнечного
удара
1008.9 1009.0
12 15.08 Ю 4 19 км 3/1 600 м
[Cu med, cong Cs]
+29.3 +23.8 72 +40 +47 очень
душно
1007.6 1008.0
15 15.08 Ю 3 22 км ясно +29.8 +21.7 62 +38 +40 очень
душно
1006.7 1007.0
18 15.08 штиль 0 10 км 3/3 600 м
[Sc]
+27.8 +18.8 58 +33 +33 очень
душно
1006.8 1007.0 +30.6
21 15.08 ЮЗ 4 10 км ясно +27.1 +17.3 55 +31 +31 душно 1007.3 1007.0
00 16.08 Ю 4 10 км ясно +24.4 +16.0 59 +28 +28 душно 1008.8 1009.0
03 16.08 СЗ 4 15 км 6/6 660 м
[Sc]
+22.6 +15.9 66 +27 +27 душно 1009.2 1009.0
06 16.08 С 4 20 км ясно +24.4 +16.9 63 +28 +32 душно 1009.3 1009.0 +22.4
09 16.08 В 2 25 км 3/0
[Ci fib]
+29.1 +18.2 52 +34 +48 очень
душно
1009.6 1010.0
12 16.08 Ю 2 30 км 4/0
[Ac und]
+28.0 +18.0 55 +33 +41 очень
душно
1009.1 1009.0
15 16.08 Ю 3 28 км 4/4 600 м
[Cu med, cong]
+27.6 +20.6 66 +34 +36 очень
душно
1008.5 1009.0
18 16.08 Ю 3 10 км 3/0
[Ac lent]
+25.8 +21.0 75 +32 +32 очень
душно
1008.2 1008.0 +29.5
21 16.08 штиль 0 10 км в посл. час ливневой дождь 10/10 600 м
[Cb cap]
+26.2 +16.1 54 +30 +30 душно 1009.3 1009.0
06 17.08 СЗ 3 12 км слабый ливневой дождь 9/9 570 м
[Cb cap]
+21.4 +14.8 66 +24 +25 комфорт 1010.5 1011.0 +21.1 0.0
09 17.08 З 5 18 км {ливн. осадки} 8/8 630 м
[Cb cap]
+22.3 +16.5 70 +27 +28 душно 1009.9 1010.0
12 17.08 ЮЗ 4 22 км {ливн. осадки} 9/9 660 м
[Sc]
+22.2 +15.8 67 +26 +27 душно 1009.5 1010.0
15 17.08 СЗ 3 20 км 10/10 600 м
[Sc]
+21.5 +14.3 64 +24 +24 комфорт 1010.0 1010.0
18 17.08 С 3 10 км 10/10 630 м
[Sc]
+21.7 +16.3 71 +25 +25 комфорт 1010.1 1010.0 +22.9 0.0
21 17.08 З 4 10 км 10/10 700 м
[Sc]
+20.4 +14.6 69 +23 +23 комфорт 1009.9 1010.0
00 18.08 ЮЗ 3 10 км 10/0
[Ac und]
+20.3 +13.7 66 +23 +23 комфорт 1009.5 1010.0
03 18.08 С 3 15 км 9/9 660 м
[Sc]
+19.2 +12.6 66 +21 +21 комфорт 1010.6 1011.0
06 18.08 С 5 16 км 5/3 600 м
[Cb cap Ac As Cc]
+19.8 +12.9 64 +21 +23 комфорт 1011.6 1012.0 +18.7
09 18.08 С 5 30 км 1/1 600 м
[Cu hum]
+25.0 +10.7 41 +26 +33 жарко 1011.8 1012.0
12 18.08 С 5 30 км 4/4 600 м
[Cu hum]
+26.2 +8.5 33 +26 +30 жарко 1011.7 1012.0
15 18.08 СВ 2 30 км 3/3 600 м
[Cu hum]
+26.4 +10.4 37 +27 +29 жарко 1011.9 1012.0
18 18.08 В 2 10 км 3/3 600 м
[Sc diur, vesp]
+24.5 +13.4 50 +27 +27 жарко 1013.7 1014.0 +28.3
21 18.08 З 2 10 км 4/0
[Cc]
+21.6 +12.0 54 +24 +24 комфорт 1014.3 1014.0
00 19.08 СЗ 2 10 км ясно +18.7 +13.4 71 +20 +20 1014.9 1015.0
03 19.08 СЗ 1 12 км ясно +17.8 +13.5 76 +19 +19 1015.6 1016.0
06 19.08 СВ 1 20 км 1/1
[Cu med, cong]
+24.8 +18.4 68 +29 +35 душно 1016.7 1017.0 +17.7
09 19.08 В 2 30 км 5/5 600 м
[Cu med, cong]
+28.0 +16.5 50 +32 +39 душно 1016.3 1016.0
12 19.08 Ю 3 30 км ясно +27.5 +15.2 47 +30 +40 жарко 1016.8 1017.0
15 19.08 Ю 4 27 км ясно +25.8 +12.9 45 +28 +29 жарко 1016.2 1016.0
18 19.08 ЮЗ 2 10 км ясно +23.6 +13.2 52 +26 +26 жарко 1016.9 1017.0 +28.4
21 19.08 З 1 10 км ясно +22.7 +14.2 59 +26 +26 жарко 1016.3 1016.0
00 20.08 З 1 10 км ясно +21.8 +14.5 63 +25 +25 комфорт 1017.1 1017.0
03 20.08 З 1 12 км ясно +19.9 +11.0 56 +22 +22 комфорт 1017.4 1017.0
06 20.08 З 1 16 км ясно +25.3 +15.1 53 +28 +34 жарко 1017.9 1018.0 +19.5
09 20.08 Ю 2 30 км 3/3 600 м
[Cu hum]
+26.4 +16.8 56 +30 +40 душно 1018.3 1018.0
12 20.08 Ю 5 30 км ясно +26.4 +13.5 45 +28 +35 жарко 1017.7 1018.0
15 20.08 Ю 4 30 км ясно +26.0 +14.5 49 +28 +30 жарко 1016.8 1017.0
18 20.08 Ю 3 10 км 3/0
[Ac lent]
+23.6 +15.1 59 +26 +26 жарко 1016.6 1017.0 +27.6
21 20.08 Ю 2 10 км ясно +23.5 +16.1 63 +27 +27 душно 1016.5 1017.0

 

Обсудить погоду в Ильичёвске на МЕТЕОФОРУМЕ

 

Местоположение метеостанции Ильичевск (Одесская область, Украина): широта 46.40 долгота 30.70 высота над уровнем моря 52 м.

В архиве по умолчанию представлена погода в Ильичёвске за последнюю неделю. Архивные данные за месяц целиком и за предыдущие месяцы, начиная с января 2011 года, Вы можете получить, выбрав интересующий диапазон дат из раскрывающегося списка и нажав кнопку "Ввод!".

Внимание! Время в таблицах - всемирное. Для получения местного времени необходимо прибавить поправку, которая в Ильичёвске равна 2 ч.

Ветер - указаны скорость ветра в м/с - средняя за 10 мин, порывы в срок и между сроками (в фигурных скобках) и направление, откуда дует ветер: С - северный, СВ - северо-восточный, В - восточный, ЮВ - юго-восточный, Ю - южный, ЮЗ - юго-западный, З - западный, СЗ - северо-западный.
Видимость - горизонтальная дальность видимости в метрах или километрах. При видимости от 1 до 10 км при отсутствии осадков обычно наблюдается дымка, при ухудшении видимости до 1 км и менее - туман. В сухую погоду видимость может ухудшаться дымом, пылью или мглою.
Явления - указаны атсосферные явления, наблюдавшиеся в срок или в последний час перед сроком; фигурными скобками обозначены явления, наблюдавшиеся между сроками (за 1-3 часа до срока); квадратными скобками обозначены град или гололедные отложения с указанием их диаметра в мм.
Облачность - указаны через наклонную черту общая и нижняя облачность в баллах и высота нижней границы облаков в метрах; квадратными скобками обозначены формы облаков: Ci - перистые, Cs - перисто-слоистые, Cc - перисто-кучевые, Ac - высококучевые, As - высокослоистые, Sc - слоисто-кучевые, Ns - слоисто-дождевые, Cu - кучевые, Cb - кучево-дождевые. Подробнее классификацию облаков см. в Атласе облаков (PDF).
T - Температура воздуха - температура, измеренная на высоте 2 м над землей.
Td - Температура точки росы - температура, при понижении до которой содержащийся в воздухе водяной пар достигнет насыщения.
f - Относительная влажность воздуха - влажноcть воздуха, измеренная на высоте 2 м над землей.
Te - Эффективная температура - температура, которую ощущает одетый по сезону человек в тени. Характеристика душности погоды. При расчете учитывается влияние влажности воздуха и скорости ветра на теплоощущения человека.
Tes - Эффективная температура на солнце - температура, которую ощущает человек, с поправкой на солнечный нагрев. Характеристика знойности погоды. Зависит от высоты солнца над горизонтом, облачности и скорости ветра. Ночью, в пасмурную погоду, а также при ветре 12 м/с и более поправка равна нулю.
P - Атмосферное давление - приведенное к уровню моря атмосферное давление.
Po - Атмосферное давление - измеренное на уровне метеостанции атмосферное давление.
Tmin - Минимальная температура - минимум температуры воздуха на высоте 2 м над землей.
Tmax - Максимальная температура - максимум температуры воздуха на высоте 2 м над землей.
R - Количество осадков - Количество выпавших осадков, мм.
S - Снежный покров - Высота снежного покрова, см.